Time,TemperatureF,DewpointF,PressureIn,WindDirection,WindDirectionDegrees,WindSpeedMPH,WindSpeedGustMPH,Humidity,HourlyPrecipIn,Conditions,Clouds,dailyrainin,SoftwareType,DateUTC
2013-05-03 00:00:00,56.5,50.4,30.20,NE,34,2.0,2.0,80,0.00,,,0.00,Wunderground v.1.15,2013-05-03 04:00:00,
2013-05-03 00:05:00,56.5,50.4,30.20,NNE,33,2.0,4.0,80,0.00,,,0.00,Wunderground v.1.15,2013-05-03 04:05:00,
2013-05-03 00:10:00,56.6,50.5,30.20,NNE,33,2.0,6.0,80,0.00,,,0.00,Wunderground v.1.15,2013-05-03 04:10:00,
2013-05-03 00:15:00,56.6,50.2,30.20,NE,34,3.0,6.0,79,0.00,,,0.00,Wunderground v.1.15,2013-05-03 04:15:00,
2013-05-03 00:25:00,56.6,50.2,30.20,NE,34,3.0,5.0,79,0.00,,,0.00,Wunderground v.1.15,2013-05-03 04:25:00,
2013-05-03 00:30:00,56.6,50.2,30.20,NE,35,3.0,5.0,79,0.00,,,0.00,Wunderground v.1.15,2013-05-03 04:30:00,
2013-05-03 00:40:00,56.5,50.4,30.19,NE,35,2.0,2.0,80,0.00,,,0.00,Wunderground v.1.15,2013-05-03 04:40:00,
2013-05-03 00:45:00,56.3,49.9,30.19,NE,37,2.0,3.0,79,0.00,,,0.00,Wunderground v.1.15,2013-05-03 04:45:00,
2013-05-03 00:50:00,56.3,49.9,30.19,NE,38,2.0,3.0,79,0.00,,,0.00,Wunderground v.1.15,2013-05-03 04:50:00,
2013-05-03 01:00:00,56.2,49.8,30.19,NE,37,3.0,4.0,79,0.00,,,0.00,Wunderground v.1.15,2013-05-03 05:00:00,
2013-05-03 01:10:00,56.0,49.6,30.18,NE,36,3.0,3.0,79,0.00,,,0.00,Wunderground v.1.15,2013-05-03 05:10:00,
2013-05-03 01:20:00,55.9,49.8,30.18,NE,36,4.0,6.0,80,0.00,,,0.00,Wunderground v.1.15,2013-05-03 05:20:00,
2013-05-03 01:30:00,55.4,49.3,30.18,NE,36,4.0,4.0,80,0.00,,,0.00,Wunderground v.1.15,2013-05-03 05:30:00,
2013-05-03 01:40:00,55.3,49.2,30.17,NE,36,4.0,4.0,80,0.00,,,0.00,Wunderground v.1.15,2013-05-03 05:40:00,
2013-05-03 01:50:00,55.1,49.0,30.17,NE,38,3.0,3.0,80,0.00,,,0.00,Wunderground v.1.15,2013-05-03 05:50:00,
2013-05-03 01:55:00,55.1,49.0,30.17,NE,38,2.0,3.0,80,0.00,,,0.00,Wunderground v.1.15,2013-05-03 05:55:00,
2013-05-03 02:00:00,55.0,48.6,30.17,NE,38,2.0,3.0,79,0.00,,,0.00,Wunderground v.1.15,2013-05-03 06:00:00,
2013-05-03 02:10:00,55.0,48.9,30.16,NE,36,2.0,2.0,80,0.00,,,0.00,Wunderground v.1.15,2013-05-03 06:10:00,
2013-05-03 02:20:00,54.7,48.6,30.16,NE,36,2.0,3.0,80,0.00,,,0.00,Wunderground v.1.15,2013-05-03 06:20:00,
2013-05-03 02:30:00,54.4,48.7,30.16,NE,36,2.0,2.0,81,0.00,,,0.00,Wunderground v.1.15,2013-05-03 06:30:00,
2013-05-03 02:40:00,54.4,48.7,30.16,NE,36,1.0,1.0,81,0.00,,,0.00,Wunderground v.1.15,2013-05-03 06:40:00,
2013-05-03 02:50:00,54.2,48.8,30.15,NE,36,1.0,1.0,82,0.00,,,0.00,Wunderground v.1.15,2013-05-03 06:50:00,
2013-05-03 02:55:00,54.2,48.8,30.15,NE,36,0.0,1.0,82,0.00,,,0.00,Wunderground v.1.15,2013-05-03 06:55:00,
2013-05-03 03:05:00,54.1,49.1,30.15,NE,36,1.0,1.0,83,0.00,,,0.00,Wunderground v.1.15,2013-05-03 07:05:00,
2013-05-03 03:15:00,54.1,49.1,30.15,NE,36,1.0,3.0,83,0.00,,,0.00,Wunderground v.1.15,2013-05-03 07:15:00,
2013-05-03 03:20:00,53.9,49.2,30.14,NE,36,1.0,1.0,84,0.00,,,0.00,Wunderground v.1.15,2013-05-03 07:20:00,
2013-05-03 03:30:00,53.6,48.9,30.14,NE,36,1.0,4.0,84,0.00,,,0.00,Wunderground v.1.15,2013-05-03 07:30:00,
2013-05-03 03:40:00,53.3,48.6,30.14,NE,36,2.0,3.0,84,0.00,,,0.00,Wunderground v.1.15,2013-05-03 07:40:00,
2013-05-03 03:50:00,53.1,48.4,30.14,NE,36,2.0,2.0,84,0.00,,,0.00,Wunderground v.1.15,2013-05-03 07:50:00,
2013-05-03 04:00:00,52.9,48.2,30.14,NE,36,1.0,2.0,84,0.00,,,0.00,Wunderground v.1.15,2013-05-03 08:00:00,
2013-05-03 04:10:00,52.9,48.2,30.13,NE,36,2.0,2.0,84,0.00,,,0.00,Wunderground v.1.15,2013-05-03 08:10:00,
2013-05-03 04:20:00,52.8,48.4,30.14,NE,36,0.0,0.0,85,0.00,,,0.00,Wunderground v.1.15,2013-05-03 08:20:00,
2013-05-03 04:25:00,52.6,48.2,30.14,NE,36,0.0,0.0,85,0.00,,,0.00,Wunderground v.1.15,2013-05-03 08:25:00,
2013-05-03 04:35:00,52.5,48.1,30.14,NE,36,0.0,0.0,85,0.00,,,0.00,Wunderground v.1.15,2013-05-03 08:35:00,
2013-05-03 04:45:00,52.6,48.2,30.14,NE,36,0.0,0.0,85,0.00,,,0.00,Wunderground v.1.15,2013-05-03 08:45:00,
2013-05-03 04:50:00,52.8,48.4,30.14,NE,36,0.0,5.0,85,0.00,,,0.00,Wunderground v.1.15,2013-05-03 08:50:00,
2013-05-03 05:00:00,52.9,48.5,30.14,NE,34,1.0,2.0,85,0.00,,,0.00,Wunderground v.1.15,2013-05-03 09:00:00,
2013-05-03 05:10:00,53.1,48.7,30.14,NNE,33,3.0,3.0,85,0.00,,,0.00,Wunderground v.1.15,2013-05-03 09:10:00,
2013-05-03 05:20:00,53.2,48.5,30.14,NE,34,4.0,4.0,84,0.00,,,0.00,Wunderground v.1.15,2013-05-03 09:20:00,
2013-05-03 05:30:00,52.9,48.5,30.13,NE,34,3.0,4.0,85,0.00,,,0.00,Wunderground v.1.15,2013-05-03 09:30:00,
2013-05-03 05:35:00,53.1,48.7,30.14,NE,34,3.0,4.0,85,0.00,,,0.00,Wunderground v.1.15,2013-05-03 09:35:00,
2013-05-03 05:40:00,53.1,48.7,30.14,NE,34,3.0,4.0,85,0.00,,,0.00,Wunderground v.1.15,2013-05-03 09:40:00,
2013-05-03 05:50:00,53.2,48.8,30.14,NE,34,3.0,3.0,85,0.00,,,0.00,Wunderground v.1.15,2013-05-03 09:50:00,
2013-05-03 06:00:00,53.2,48.5,30.14,NE,34,3.0,3.0,84,0.00,,,0.00,Wunderground v.1.15,2013-05-03 10:00:00,
2013-05-03 06:10:00,53.2,48.5,30.14,NE,34,2.0,3.0,84,0.00,,,0.00,Wunderground v.1.15,2013-05-03 10:10:00,
2013-05-03 06:20:00,53.1,48.4,30.14,NE,34,3.0,4.0,84,0.00,,,0.00,Wunderground v.1.15,2013-05-03 10:20:00,
2013-05-03 06:30:00,53.1,48.4,30.14,NE,34,4.0,4.0,84,0.00,,,0.00,Wunderground v.1.15,2013-05-03 10:30:00,
2013-05-03 06:40:00,52.9,48.2,30.14,NE,35,4.0,7.0,84,0.00,,,0.00,Wunderground v.1.15,2013-05-03 10:40:00,
2013-05-03 06:50:00,52.8,48.4,30.15,NE,37,4.0,6.0,85,0.00,,,0.00,Wunderground v.1.15,2013-05-03 10:50:00,
2013-05-03 06:55:00,52.6,48.2,30.15,NE,34,5.0,6.0,85,0.00,,,0.00,Wunderground v.1.15,2013-05-03 10:55:00,
2013-05-03 07:00:00,52.6,48.2,30.15,NE,35,5.0,5.0,85,0.00,,,0.00,Wunderground v.1.15,2013-05-03 11:00:00,
2013-05-03 07:10:00,52.3,47.9,30.15,NE,36,5.0,5.0,85,0.00,,,0.00,Wunderground v.1.15,2013-05-03 11:10:00,
2013-05-03 07:20:00,52.3,47.9,30.15,NE,37,4.0,4.0,85,0.00,,,0.00,Wunderground v.1.15,2013-05-03 11:20:00,
2013-05-03 07:30:00,52.3,47.9,30.15,NNE,29,5.0,6.0,85,0.00,,,0.00,Wunderground v.1.15,2013-05-03 11:30:00,
2013-05-03 07:40:00,52.8,48.4,30.16,NE,36,7.0,7.0,85,0.00,,,0.00,Wunderground v.1.15,2013-05-03 11:40:00,
2013-05-03 07:50:00,53.1,48.4,30.16,NE,53,7.0,7.0,84,0.00,,,0.00,Wunderground v.1.15,2013-05-03 11:50:00,
2013-05-03 08:00:00,53.1,48.4,30.15,NE,36,7.0,7.0,84,0.00,,,0.00,Wunderground v.1.15,2013-05-03 12:00:00,
2013-05-03 08:10:00,53.2,48.5,30.16,NE,42,7.0,7.0,84,0.00,,,0.00,Wunderground v.1.15,2013-05-03 12:10:00,
2013-05-03 08:20:00,53.2,48.5,30.16,NNE,27,7.0,7.0,84,0.00,,,0.00,Wunderground v.1.15,2013-05-03 12:20:00,
2013-05-03 08:30:00,53.6,48.9,30.16,NE,56,6.0,7.0,84,0.00,,,0.00,Wunderground v.1.15,2013-05-03 12:30:00,
2013-05-03 08:40:00,53.6,48.2,30.16,NE,49,8.0,8.0,82,0.00,,,0.00,Wunderground v.1.15,2013-05-03 12:40:00,
2013-05-03 08:55:00,54.1,48.4,30.16,North,5,8.0,10.0,81,0.00,,,0.00,Wunderground v.1.15,2013-05-03 12:55:00,
2013-05-03 09:00:00,54.2,48.5,30.16,NNE,30,8.0,10.0,81,0.00,,,0.00,Wunderground v.1.15,2013-05-03 13:00:00,
2013-05-03 09:10:00,54.4,47.3,30.17,NNE,32,8.0,8.0,77,0.00,,,0.00,Wunderground v.1.15,2013-05-03 13:10:00,
2013-05-03 09:20:00,53.6,46.6,30.17,ENE,60,8.0,8.0,77,0.00,,,0.00,Wunderground v.1.15,2013-05-03 13:20:00,
2013-05-03 09:30:00,53.5,45.4,30.17,NE,50,6.0,7.0,74,0.00,,,0.00,Wunderground v.1.15,2013-05-03 13:30:00,
2013-05-03 09:40:00,53.5,44.7,30.17,ENE,57,7.0,7.0,72,0.00,,,0.00,Wunderground v.1.15,2013-05-03 13:40:00,
2013-05-03 09:50:00,53.8,43.9,30.17,NE,44,6.0,6.0,69,0.00,,,0.00,Wunderground v.1.15,2013-05-03 13:50:00,
2013-05-03 10:00:00,54.5,43.4,30.17,NE,42,5.0,5.0,66,0.00,,,0.00,Wunderground v.1.15,2013-05-03 14:00:00,
2013-05-03 10:05:00,54.8,43.7,30.17,NE,45,5.0,5.0,66,0.00,,,0.00,Wunderground v.1.15,2013-05-03 14:05:00,
2013-05-03 10:10:00,55.1,43.1,30.17,NNE,21,6.0,6.0,64,0.00,,,0.00,Wunderground v.1.15,2013-05-03 14:10:00,
2013-05-03 10:20:00,55.3,42.5,30.17,ENE,59,9.0,9.0,62,0.00,,,0.00,Wunderground v.1.15,2013-05-03 14:20:00,
2013-05-03 10:30:00,55.6,43.2,30.17,NNE,13,8.0,8.0,63,0.00,,,0.00,Wunderground v.1.15,2013-05-03 14:30:00,
2013-05-03 10:40:00,56.0,44.4,30.17,NE,44,8.0,9.0,65,0.00,,,0.00,Wunderground v.1.15,2013-05-03 14:40:00,
2013-05-03 10:50:00,56.6,44.6,30.17,NNE,21,8.0,9.0,64,0.00,,,0.00,Wunderground v.1.15,2013-05-03 14:50:00,
2013-05-03 11:00:00,57.2,43.4,30.17,NE,45,8.0,8.0,60,0.00,,,0.00,Wunderground v.1.15,2013-05-03 15:00:00,
2013-05-03 11:05:00,57.2,43.9,30.16,NNE,32,9.0,9.0,61,0.00,,,0.00,Wunderground v.1.15,2013-05-03 15:05:00,
2013-05-03 11:10:00,57.6,44.2,30.17,ENE,59,8.0,8.0,61,0.00,,,0.00,Wunderground v.1.15,2013-05-03 15:10:00,
2013-05-03 11:20:00,59.0,43.3,30.16,NE,48,8.0,8.0,56,0.00,,,0.00,Wunderground v.1.15,2013-05-03 15:20:00,
2013-05-03 11:30:00,60.1,43.4,30.16,NNE,33,8.0,9.0,54,0.00,,,0.00,Wunderground v.1.15,2013-05-03 15:30:00,
2013-05-03 11:40:00,60.5,42.8,30.16,NNE,28,9.0,9.0,52,0.00,,,0.00,Wunderground v.1.15,2013-05-03 15:40:00,
2013-05-03 11:45:00,60.4,43.2,30.16,NNE,32,9.0,9.0,53,0.00,,,0.00,Wunderground v.1.15,2013-05-03 15:45:00,
2013-05-03 11:50:00,60.1,39.8,30.16,NNE,13,10.0,10.0,47,0.00,,,0.00,Wunderground v.1.15,2013-05-03 15:50:00,
2013-05-03 11:55:00,60.1,40.3,30.16,North,5,10.0,10.0,48,0.00,,,0.00,Wunderground v.1.15,2013-05-03 15:55:00,
2013-05-03 12:05:00,60.7,39.2,30.15,NE,48,9.0,10.0,45,0.00,,,0.00,Wunderground v.1.15,2013-05-03 16:05:00,
2013-05-03 12:10:00,60.9,40.5,30.15,NE,52,9.0,9.0,47,0.00,,,0.00,Wunderground v.1.15,2013-05-03 16:10:00,
2013-05-03 12:20:00,61.2,39.1,30.15,ENE,60,10.0,11.0,44,0.00,,,0.00,Wunderground v.1.15,2013-05-03 16:20:00,
2013-05-03 12:25:00,61.3,39.8,30.15,ENE,57,10.0,14.0,45,0.00,,,0.00,Wunderground v.1.15,2013-05-03 16:25:00,
2013-05-03 12:30:00,61.6,38.3,30.15,NE,52,9.0,9.0,42,0.00,,,0.00,Wunderground v.1.15,2013-05-03 16:30:00,
2013-05-03 12:40:00,61.6,38.3,30.14,NE,44,9.0,12.0,42,0.00,,,0.00,Wunderground v.1.15,2013-05-03 16:40:00,
2013-05-03 12:50:00,61.3,38.6,30.14,NE,53,9.0,9.0,43,0.00,,,0.00,Wunderground v.1.15,2013-05-03 16:50:00,
2013-05-03 13:00:00,61.3,41.4,30.13,NNE,22,8.0,8.0,48,0.00,,,0.00,Wunderground v.1.15,2013-05-03 17:00:00,
2013-05-03 13:10:00,61.2,38.5,30.13,ENE,59,9.0,9.0,43,0.00,,,0.00,Wunderground v.1.15,2013-05-03 17:10:00,
2013-05-03 13:15:00,61.8,39.6,30.13,ENE,61,8.0,9.0,44,0.00,,,0.00,Wunderground v.1.15,2013-05-03 17:15:00,
2013-05-03 13:20:00,62.3,38.3,30.13,NE,56,8.0,12.0,41,0.00,,,0.00,Wunderground v.1.15,2013-05-03 17:20:00,
2013-05-03 13:30:00,63.2,39.1,30.12,NE,37,9.0,9.0,41,0.00,,,0.00,Wunderground v.1.15,2013-05-03 17:30:00,
2013-05-03 13:40:00,63.5,38.1,30.12,NE,46,9.0,9.0,39,0.00,,,0.00,Wunderground v.1.15,2013-05-03 17:40:00,
2013-05-03 13:45:00,63.2,40.9,30.12,NE,39,10.0,12.0,44,0.00,,,0.00,Wunderground v.1.15,2013-05-03 17:45:00,
2013-05-03 13:55:00,63.7,40.2,30.12,NE,55,9.0,14.0,42,0.00,,,0.00,Wunderground v.1.15,2013-05-03 17:55:00,
2013-05-03 14:00:00,63.5,38.7,30.12,NE,52,9.0,9.0,40,0.00,,,0.00,Wunderground v.1.15,2013-05-03 18:00:00,
2013-05-03 14:10:00,63.4,38.6,30.12,NE,50,9.0,9.0,40,0.00,,,0.00,Wunderground v.1.15,2013-05-03 18:10:00,
2013-05-03 14:15:00,63.7,38.9,30.12,NE,40,9.0,9.0,40,0.00,,,0.00,Wunderground v.1.15,2013-05-03 18:15:00,
2013-05-03 14:20:00,64.2,40.6,30.11,NNE,18,8.0,9.0,42,0.00,,,0.00,Wunderground v.1.15,2013-05-03 18:20:00,
2013-05-03 14:30:00,64.0,41.0,30.11,ENE,65,8.0,9.0,43,0.00,,,0.00,Wunderground v.1.15,2013-05-03 18:30:00,
2013-05-03 14:35:00,63.9,40.3,30.11,ENE,63,7.0,10.0,42,0.00,,,0.00,Wunderground v.1.15,2013-05-03 18:35:00,
2013-05-03 14:45:00,63.2,39.7,30.11,NE,38,8.0,8.0,42,0.00,,,0.00,Wunderground v.1.15,2013-05-03 18:45:00,
2013-05-03 14:50:00,63.1,39.0,30.11,NNE,25,8.0,8.0,41,0.00,,,0.00,Wunderground v.1.15,2013-05-03 18:50:00,
2013-05-03 15:00:00,62.6,37.9,30.11,NE,52,7.0,7.0,40,0.00,,,0.00,Wunderground v.1.15,2013-05-03 19:00:00,
2013-05-03 15:10:00,62.3,37.7,30.11,ENE,61,8.0,8.0,40,0.00,,,0.00,Wunderground v.1.15,2013-05-03 19:10:00,
2013-05-03 15:20:00,62.4,37.1,30.10,NE,47,7.0,7.0,39,0.00,,,0.00,Wunderground v.1.15,2013-05-03 19:20:00,
2013-05-03 15:30:00,62.7,39.9,30.10,NE,45,7.0,7.0,43,0.00,,,0.00,Wunderground v.1.15,2013-05-03 19:30:00,
2013-05-03 15:40:00,62.3,38.9,30.10,NNE,24,8.0,13.0,42,0.00,,,0.00,Wunderground v.1.15,2013-05-03 19:40:00,
2013-05-03 15:45:00,62.3,39.5,30.10,NE,38,8.0,13.0,43,0.00,,,0.00,Wunderground v.1.15,2013-05-03 19:45:00,
2013-05-03 15:55:00,62.3,39.5,30.09,NE,37,9.0,16.0,43,0.00,,,0.00,Wunderground v.1.15,2013-05-03 19:55:00,
2013-05-03 16:05:00,62.0,39.2,30.09,ENE,67,8.0,9.0,43,0.00,,,0.00,Wunderground v.1.15,2013-05-03 20:05:00,
2013-05-03 16:15:00,62.4,39.6,30.09,NE,42,6.0,18.0,43,0.00,,,0.00,Wunderground v.1.15,2013-05-03 20:15:00,
2013-05-03 16:20:00,62.1,40.5,30.09,ENE,61,9.0,9.0,45,0.00,,,0.00,Wunderground v.1.15,2013-05-03 20:20:00,
2013-05-03 16:30:00,61.8,39.6,30.09,NNE,12,9.0,9.0,44,0.00,,,0.00,Wunderground v.1.15,2013-05-03 20:30:00,
2013-05-03 16:40:00,61.8,40.8,30.09,North,5,7.0,7.0,46,0.00,,,0.00,Wunderground v.1.15,2013-05-03 20:40:00,
2013-05-03 16:45:00,62.1,39.3,30.09,ENE,69,6.0,7.0,43,0.00,,,0.00,Wunderground v.1.15,2013-05-03 20:45:00,
2013-05-03 16:50:00,62.6,39.8,30.09,ENE,58,4.0,4.0,43,0.00,,,0.00,Wunderground v.1.15,2013-05-03 20:50:00,
2013-05-03 16:55:00,62.7,41.6,30.09,NNE,24,3.0,6.0,46,0.00,,,0.00,Wunderground v.1.15,2013-05-03 20:55:00,
2013-05-03 17:00:00,62.6,40.4,30.09,NE,56,5.0,8.0,44,0.00,,,0.00,Wunderground v.1.15,2013-05-03 21:00:00,
2013-05-03 17:10:00,62.1,41.1,30.08,NE,52,7.0,7.0,46,0.00,,,0.00,Wunderground v.1.15,2013-05-03 21:10:00,
2013-05-03 17:20:00,62.1,42.2,30.09,ENE,59,5.0,10.0,48,0.00,,,0.00,Wunderground v.1.15,2013-05-03 21:20:00,
2013-05-03 17:25:00,61.8,39.1,30.09,ENE,57,5.0,11.0,43,0.00,,,0.00,Wunderground v.1.15,2013-05-03 21:25:00,
2013-05-03 17:30:00,61.3,40.3,30.08,ENE,58,7.0,7.0,46,0.00,,,0.00,Wunderground v.1.15,2013-05-03 21:30:00,
2013-05-03 17:40:00,61.0,40.1,30.08,ENE,57,6.0,10.0,46,0.00,,,0.00,Wunderground v.1.15,2013-05-03 21:40:00,
2013-05-03 17:50:00,60.7,40.3,30.09,NE,56,5.0,6.0,47,0.00,,,0.00,Wunderground v.1.15,2013-05-03 21:50:00,
2013-05-03 18:00:00,60.5,41.2,30.09,ENE,77,5.0,5.0,49,0.00,,,0.00,Wunderground v.1.15,2013-05-03 22:00:00,
2013-05-03 18:10:00,60.4,40.6,30.09,NE,44,4.0,4.0,48,0.00,,,0.00,Wunderground v.1.15,2013-05-03 22:10:00,
2013-05-03 18:20:00,60.4,41.1,30.09,NE,46,3.0,5.0,49,0.00,,,0.00,Wunderground v.1.15,2013-05-03 22:20:00,
2013-05-03 18:25:00,60.1,42.4,30.09,NE,48,4.0,5.0,52,0.00,,,0.00,Wunderground v.1.15,2013-05-03 22:25:00,
2013-05-03 18:35:00,59.8,41.6,30.09,NE,51,4.0,5.0,51,0.00,,,0.00,Wunderground v.1.15,2013-05-03 22:35:00,
2013-05-03 18:40:00,59.6,41.9,30.09,NE,34,4.0,8.0,52,0.00,,,0.00,Wunderground v.1.15,2013-05-03 22:40:00,
2013-05-03 18:50:00,59.2,42.1,30.10,NNE,26,4.0,4.0,53,0.00,,,0.00,Wunderground v.1.15,2013-05-03 22:50:00,
2013-05-03 19:00:00,59.0,42.4,30.09,NE,36,4.0,5.0,54,0.00,,,0.00,Wunderground v.1.15,2013-05-03 23:00:00,
2013-05-03 19:10:00,58.9,43.7,30.09,NE,34,4.0,4.0,57,0.00,,,0.00,Wunderground v.1.15,2013-05-03 23:10:00,
2013-05-03 19:20:00,58.7,44.0,30.09,ENE,58,4.0,4.0,58,0.00,,,0.00,Wunderground v.1.15,2013-05-03 23:20:00,
2013-05-03 19:25:00,58.6,43.9,30.10,NE,40,5.0,5.0,58,0.00,,,0.00,Wunderground v.1.15,2013-05-03 23:25:00,
2013-05-03 19:30:00,58.4,44.1,30.10,ENE,61,4.0,5.0,59,0.00,,,0.00,Wunderground v.1.15,2013-05-03 23:30:00,
2013-05-03 19:40:00,58.0,44.2,30.09,NE,56,4.0,5.0,60,0.00,,,0.00,Wunderground v.1.15,2013-05-03 23:40:00,
2013-05-03 19:45:00,57.8,44.4,30.10,NE,34,4.0,5.0,61,0.00,,,0.00,Wunderground v.1.15,2013-05-03 23:45:00,
2013-05-03 19:55:00,57.5,44.6,30.10,NNE,33,4.0,4.0,62,0.00,,,0.00,Wunderground v.1.15,2013-05-03 23:55:00,
2013-05-03 20:00:00,57.3,44.4,30.10,NE,55,4.0,4.0,62,0.00,,,0.00,Wunderground v.1.15,2013-05-04 00:00:00,
2013-05-03 20:10:00,57.2,44.3,30.09,ENE,67,6.0,6.0,62,0.00,,,0.00,Wunderground v.1.15,2013-05-04 00:10:00,
2013-05-03 20:20:00,56.9,44.8,30.09,ENE,62,6.0,7.0,64,0.00,,,0.00,Wunderground v.1.15,2013-05-04 00:20:00,
2013-05-03 20:30:00,56.9,44.8,30.09,NE,50,7.0,7.0,64,0.00,,,0.00,Wunderground v.1.15,2013-05-04 00:30:00,
2013-05-03 20:40:00,56.7,45.1,30.09,NE,55,5.0,5.0,65,0.00,,,0.00,Wunderground v.1.15,2013-05-04 00:40:00,
2013-05-03 20:50:00,56.7,45.5,30.09,NE,50,6.0,6.0,66,0.00,,,0.00,Wunderground v.1.15,2013-05-04 00:50:00,
2013-05-03 21:00:00,56.6,45.8,30.10,NE,46,5.0,6.0,67,0.00,,,0.00,Wunderground v.1.15,2013-05-04 01:00:00,
2013-05-03 21:10:00,56.5,45.7,30.10,ENE,58,4.0,7.0,67,0.00,,,0.00,Wunderground v.1.15,2013-05-04 01:10:00,
2013-05-03 21:20:00,56.5,45.7,30.09,NE,49,6.0,7.0,67,0.00,,,0.00,Wunderground v.1.15,2013-05-04 01:20:00,
2013-05-03 21:30:00,56.5,45.7,30.10,NE,36,6.0,6.0,67,0.00,,,0.00,Wunderground v.1.15,2013-05-04 01:30:00,
2013-05-03 21:35:00,56.5,45.7,30.10,NE,46,5.0,6.0,67,0.00,,,0.00,Wunderground v.1.15,2013-05-04 01:35:00,
2013-05-03 21:40:00,56.3,45.9,30.10,ENE,61,5.0,8.0,68,0.00,,,0.00,Wunderground v.1.15,2013-05-04 01:40:00,
2013-05-03 21:50:00,56.0,46.0,30.11,ENE,76,5.0,8.0,69,0.00,,,0.00,Wunderground v.1.15,2013-05-04 01:50:00,
2013-05-03 22:00:00,56.0,45.6,30.11,ENE,76,7.0,9.0,68,0.00,,,0.00,Wunderground v.1.15,2013-05-04 02:00:00,
2013-05-03 22:10:00,56.3,45.5,30.11,NE,49,8.0,9.0,67,0.00,,,0.00,Wunderground v.1.15,2013-05-04 02:10:00,
2013-05-03 22:15:00,56.2,45.4,30.11,ENE,65,7.0,9.0,67,0.00,,,0.00,Wunderground v.1.15,2013-05-04 02:15:00,
2013-05-03 22:20:00,56.2,45.4,30.11,ENE,59,6.0,6.0,67,0.00,,,0.00,Wunderground v.1.15,2013-05-04 02:20:00,
2013-05-03 22:30:00,56.0,45.2,30.11,NE,34,5.0,10.0,67,0.00,,,0.00,Wunderground v.1.15,2013-05-04 02:30:00,
2013-05-03 22:35:00,56.0,45.2,30.11,NNE,27,6.0,10.0,67,0.00,,,0.00,Wunderground v.1.15,2013-05-04 02:35:00,
2013-05-03 22:40:00,56.0,45.2,30.11,NE,39,6.0,7.0,67,0.00,,,0.00,Wunderground v.1.15,2013-05-04 02:40:00,
2013-05-03 22:50:00,56.0,45.2,30.10,ENE,68,5.0,5.0,67,0.00,,,0.00,Wunderground v.1.15,2013-05-04 02:50:00,
2013-05-03 23:00:00,56.0,45.2,30.10,NE,42,4.0,4.0,67,0.00,,,0.00,Wunderground v.1.15,2013-05-04 03:00:00,
2013-05-03 23:10:00,55.7,45.7,30.10,NE,42,2.0,3.0,69,0.00,,,0.00,Wunderground v.1.15,2013-05-04 03:10:00,
2013-05-03 23:20:00,55.3,46.1,30.09,NE,52,2.0,2.0,71,0.00,,,0.00,Wunderground v.1.15,2013-05-04 03:20:00,
2013-05-03 23:25:00,55.1,45.9,30.09,NE,52,1.0,2.0,71,0.00,,,0.00,Wunderground v.1.15,2013-05-04 03:25:00,
2013-05-03 23:35:00,54.8,45.9,30.09,NE,49,2.0,4.0,72,0.00,,,0.00,Wunderground v.1.15,2013-05-04 03:35:00,
2013-05-03 23:40:00,54.8,45.9,30.09,NE,36,2.0,4.0,72,0.00,,,0.00,Wunderground v.1.15,2013-05-04 03:40:00,
2013-05-03 23:50:00,54.8,44.8,30.09,NE,55,2.0,2.0,69,0.00,,,0.00,Wunderground v.1.15,2013-05-04 03:50:00,